Grand Junction, CO

10:20 AM MDT on August 27, 2016 (GMT -0600)
Walker

Weather History for KGJT - May, 2013

Change the Weather History Date:

Sunday, May 12, 2013

  Actual Average Record
Temperature  
Mean Temperature 66 °F 60 °F  
Max Temperature 81 °F 75 °F 92 °F (1960)
Min Temperature 50 °F 46 °F 29 °F (2000)
Degree Days  
Heating Degree Days 0 6  
Month to date heating degree days 112 87  
Since 1 July heating degree days 6003 5521  
Cooling Degree Days 1 1  
Month to date cooling degree days 1 9  
Year to date cooling degree days 1 12  
Growing Degree Days 16 (Base 50)    
Moisture  
Dew Point 34 °F    
Average Humidity 38    
Maximum Humidity 61    
Minimum Humidity 15    
Precipitation  
Precipitation 0.00 in 0.03 in 0.55 in (1985)
Month to date precipitation 0.54 0.38  
Year to date precipitation 3.08 3.33  
Snow  
Snow 0.00 in 0.00 in 0.00 in (2002)
Month to date snowfall 0.0 0.1  
Since 1 July snowfall 24.6 19.1  
Snow Depth 0.00 in    
Sea Level Pressure  
Sea Level Pressure 30.08 in    
Wind  
Wind Speed 6 mph (East)    
Max Wind Speed 14 mph    
Max Gust Speed 18 mph    
Visibility 10 miles    
Events      
T = Trace of Precipitation, MM = Missing Value Source: NWS Daily Summary

Daily Weather History Graph

Daily Weather History Graph

Search for Another Location

Airport or City:

Trip Planner

Search our weather history database for the weather conditions in past years. The results will help you decide how hot, cold, wet, or windy it might be!

Date:

Astronomy

May. 12, 2013 Rise Set
Actual Time 6:03 AM MDT 8:18 PM MDT
Civil Twilight 5:33 AM MDT 8:47 PM MDT
Nautical Twilight 4:56 AM MDT 9:24 PM MDT
Astronomical Twilight 4:16 AM MDT 10:05 PM MDT
Moon 8:01 AM MDT (5/12) 10:47 PM MDT (5/12)
Length of Visible Light 15h 14m
Length of Day
14h 14m
Waxing Crescent, 7% of the Moon is Illuminated
May 12
Waxing Crescent
May 17
First Quarter
May 24
Full
May 31
Last Quarter
Jun 8
New

Hourly Weather History & Observations

Time (MDT) Temp. Dew Point Humidity Pressure Visibility Wind Dir Wind Speed Gust Speed Precip Events Conditions
12:53 AM 55.0 °F 36.0 °F 49% 30.13 in 10.0 mi SE 6.9 mph - N/A   Clear
1:53 AM 55.9 °F 35.1 °F 45% 30.12 in 10.0 mi East 10.4 mph - N/A   Clear
2:53 AM 55.9 °F 35.1 °F 45% 30.12 in 10.0 mi ESE 11.5 mph - N/A   Partly Cloudy
3:53 AM 54.0 °F 37.0 °F 53% 30.13 in 10.0 mi East 4.6 mph - N/A   Mostly Cloudy
4:53 AM 54.0 °F 36.0 °F 51% 30.13 in 10.0 mi ESE 11.5 mph - N/A   Scattered Clouds
5:53 AM 50.0 °F 37.9 °F 63% 30.14 in 10.0 mi ESE 9.2 mph - N/A   Clear
6:53 AM 51.1 °F 37.0 °F 59% 30.17 in 10.0 mi East 4.6 mph - N/A   Clear
7:53 AM 55.0 °F 39.0 °F 55% 30.18 in 10.0 mi ESE 6.9 mph - N/A   Clear
8:53 AM 61.0 °F 37.9 °F 42% 30.17 in 10.0 mi SSE 5.8 mph - N/A   Clear
9:53 AM 64.9 °F 34.0 °F 32% 30.18 in 10.0 mi SSE 6.9 mph - N/A   Clear
10:53 AM 69.1 °F 33.1 °F 26% 30.14 in 10.0 mi Calm Calm - N/A   Clear
11:53 AM 71.1 °F 32.0 °F 24% 30.12 in 10.0 mi Variable 3.5 mph - N/A   Clear
12:53 PM 75.0 °F 32.0 °F 21% 30.10 in 10.0 mi West 4.6 mph - N/A   Clear
1:53 PM 77.0 °F 33.1 °F 20% 30.06 in 10.0 mi West 6.9 mph 16.1 mph N/A   Scattered Clouds
2:53 PM 78.1 °F 30.9 °F 18% 30.05 in 10.0 mi Variable 3.5 mph - N/A   Clear
3:53 PM 79.0 °F 30.9 °F 17% 30.03 in 10.0 mi West 10.4 mph 17.3 mph N/A   Scattered Clouds
4:53 PM 80.1 °F 28.9 °F 15% 30.01 in 10.0 mi West 4.6 mph - N/A   Partly Cloudy
5:53 PM 79.0 °F 28.9 °F 16% 30.00 in 10.0 mi Calm Calm - N/A   Clear
6:53 PM 78.1 °F 32.0 °F 19% 29.99 in 10.0 mi WNW 6.9 mph - N/A   Clear
7:53 PM 73.9 °F 34.0 °F 23% 29.99 in 10.0 mi NW 5.8 mph - N/A   Clear
8:53 PM 69.1 °F 34.0 °F 27% 30.00 in 10.0 mi NNE 8.1 mph - N/A   Clear
9:53 PM 66.0 °F 34.0 °F 30% 30.02 in 10.0 mi North 6.9 mph - N/A   Clear
10:53 PM 64.0 °F 34.0 °F 33% 30.03 in 10.0 mi NNE 8.1 mph - N/A   Clear
11:53 PM 60.1 °F 37.0 °F 42% 30.04 in 10.0 mi ENE 4.6 mph - N/A   Clear